Vertical_Velocity
1 -2 -1 -1 -1 -2 -1 -0 0 0 0 -1 -1 -2 -0 -2 1 -0 3 0 -0 1 -1 -0 1 0 0 -0 1 -1 -2 -2 -1 -1 1 -3 1 0 -1 -2 1 3 -3
-2 -1 -1 -1 -2 -1 -1 -1 -0 0 0 -2 -1 -2 -1 -1 -1 -1 1 3 0 -2 0 -2 -1 -1 -1 -1 0 -2 -3 -1 0 1 1 -1 1 1 0 -2 0 -1 -1
-1 -1 -0 -1 0 -1 -1 -1 -1 1 3 -1 -0 -1 2 -2 -1 -2 -2 2 -1 -1 -4 0 -1 -1 -1 -1 -1 1 -1 -1 -1 0 -1 -0 0 -3 -1 3 -1 1 -1
-1 0 -1 0 -0 -1 0 -1 -0 1 -2 -1 -1 -2 -1 -1 -1 -0 -0 -1 0 2 2 0 -0 -0 -0 -0 -1 -2 -1 -2 -2 0 2 3 2 0 0 1 1 -3 -3
-0 -2 -0 -0 1 -0 -1 -0 -1 -0 1 1 1 -0 -2 -2 -0 -1 -2 0 2 1 1 1 0 -0 -1 -3 -2 -1 -3 -2 -1 -1 -2 -1 1 0 -1 -0 -1 4 3
1 0 -2 -1 -1 -1 -1 -1 1 -1 -0 0 -0 -1 -1 -0 -0 -0 1 1 1 1 -1 -0 1 0 1 -0 0 1 1 -0 0 -4 -2 -2 0 0 -2 0 3 -1 -1
-6 -6 -3 -2 -1 -1 0 0 -0 -1 1 0 -0 -1 -1 -0 1 2 2 -1 -3 -2 -2 -3 -3 -2 -1 -1 -0 -0 1 -0 -3 -2 0 -4 -6 -1 -0 -2 -4 -3 -4
-2 2 -2 -3 -2 -2 -1 -0 0 1 1 0 -1 0 1 1 0 -1 -2 -3 -2 -1 1 0 -3 -3 -3 -1 -1 -2 -1 -1 1 -0 -1 2 -2 -4 -4 -4 -4 -4 -8
-4 0 -3 -3 -1 -0 2 -0 -1 -0 2 0 1 1 1 0 -0 -1 -2 -2 -2 -2 -2 0 0 -2 -4 -4 -2 0 1 -0 -1 -2 -1 1 1 -0 1 2 0 -1 -7
-2 -1 1 -3 -1 -3 -3 -2 -0 1 -0 -2 -1 -1 -1 -1 -1 -0 1 2 2 -3 -0 -0 1 2 -0 -1 -3 -1 -1 -0 -1 1 -0 1 3 3 -0 1 4 8 11
-0 -1 0 -3 1 -3 -1 0 -1 -1 -1 -1 -1 -0 1 -0 -1 -2 -4 -8 3 -3 -5 5 -6 -0 -3 -1 -2 -3 1 1 -0 -2 0 2 1 -2 -0 4 0 -1 1
1 4 -1 -2 1 -2 -3 1 -2 -1 -0 -1 0 2 1 -2 -4 -1 8 -5 7 1 4 7 -3 2 -5 1 -0 -3 0 -3 2 -0 -1 0 0 -0 -1 -2 -0 -5 -1
1 5 -3 -1 0 -3 -1 -3 -0 -1 -1 0 0 1 -3 -4 -3 -2 7 0 2 -1 6 -2 -3 -9 -6 -3 -5 -3 0 0 1 -0 0 2 0 -1 -2 -2 1 0 -0
0 0 -2 2 -1 -2 1 -1 -1 -2 -1 -0 -0 -1 -5 -3 -0 -3 -0 -7 -3 -6 -3 -5 -4 -8 -6 5 -1 4 -2 1 4 1 0 1 0 -0 -1 -4 2 -1 -1
-6 -2 3 -1 -1 -0 1 0 -2 -1 -1 -2 -3 -6 -3 -0 -1 1 -5 2 8 3 -4 -6 -0 -2 3 3 0 1 -1 1 -1 -0 1 -1 -2 1 2 -1 -5 0 -3
-4 1 9 -2 0 -0 0 -2 -3 -4 -1 -3 -2 -4 0 -0 5 -10 -3 -2 5 1 4 -1 -3 -3 -1 -6 -1 2 -1 1 1 -1 7 1 -1 4 0 -2 1 -10 -5
-4 0 8 -2 -5 -1 -5 -1 -5 -1 -1 -3 -1 1 -2 -3 -1 5 6 6 -5 16 6 -0 -2 -5 1 -3 -1 1 4 -1 -1 0 -0 6 0 5 7 5 -2 -8 3
-2 -2 -2 -1 -3 -2 -3 -1 0 0 -1 -2 1 1 1 1 2 3 -0 3 -0 1 -3 -2 -2 0 -0 -3 3 -1 -1 7 1 -2 1 4 0 3 -2 1 -4 -0 -6
-7 8 -2 1 -2 -4 1 1 -2 1 -2 3 2 2 5 1 3 3 -1 -1 -6 3 0 -3 -2 1 0 -3 -0 -4 1 -2 -2 -1 -1 -2 -3 14 3 -2 -3 2 1
-4 -0 1 1 3 0 1 3 -0 -3 -0 4 3 2 2 2 5 6 1 4 5 1 -1 3 1 7 -3 1 2 3 -5 -2 -0 -2 1 2 -1 2 1 -1 2 2 -1
0 -3 2 2 5 2 1 1 -3 -1 1 -1 -1 -1 -3 3 4 3 1 3 -2 0 -3 3 1 -2 -0 -0 -1 -5 -2 -2 -1 -4 1 2 -6 -1 -1 1 1 -1 -0
7 -3 -1 1 7 -0 -4 -5 -1 -1 -0 -4 -5 1 4 4 1 -4 2 5 2 1 0 0 4 3 1 7 5 -2 -2 -2 -4 4 -5 1 2 -0 1 1 -0 -2 -4
-2 -1 -2 -4 5 12 11 -12 0 -2 -4 -2 1 2 5 5 2 1 0 -3 -2 -5 -2 3 6 3 -3 -0 -0 1 -6 2 -1 -0 1 3 0 1 1 0 -1 0 -1
9 7 4 5 3 -1 -1 -5 3 3 -3 -3 1 -0 2 -0 4 2 -2 -0 -1 0 2 2 -0 -1 0 -7 -0 -2 -1 -0 4 2 2 -1 -3 3 -3 2 4 -1 -0
4 4 8 1 5 6 6 -5 -2 -3 -2 1 -0 3 4 -4 -2 -3 2 2 1 -2 -3 -3 -2 0 3 -2 2 5 1 1 -2 1 -2 -0 0 -2 -1 -4 -1 -3 -2
-1 6 4 2 -4 -5 -3 -2 -0 -1 1 4 2 1 -1 1 3 4 4 1 1 -1 -2 -2 -0 -1 2 1 0 0 3 3 1 -1 0 -1 -0 -4 -3 -3 -4 -3 -1
Height
5915 5916 5916 5918 5919 5919 5921 5921 5922 5923 5924 5925 5925 5925 5925 5926 5925 5924 5923 5924 5923 5923 5922 5922 5921 5919 5917 5916 5915 5914 5912 5910 5909 5908 5906 5904 5901 5898 5898 5895 5893 5891 5891
5914 5915 5915 5916 5917 5917 5918 5919 5921 5922 5922 5923 5923 5924 5924 5924 5924 5923 5922 5922 5922 5922 5921 5920 5918 5917 5915 5913 5912 5911 5909 5907 5906 5904 5903 5901 5899 5897 5895 5893 5891 5889 5887
5912 5913 5914 5914 5914 5915 5916 5917 5918 5920 5920 5921 5922 5922 5923 5923 5922 5922 5920 5919 5919 5918 5917 5916 5914 5913 5912 5911 5909 5908 5906 5904 5903 5901 5900 5898 5896 5894 5892 5889 5888 5885 5883
5910 5911 5911 5911 5912 5912 5913 5915 5916 5917 5918 5920 5920 5920 5920 5920 5920 5919 5918 5916 5915 5913 5912 5911 5910 5909 5908 5907 5906 5905 5904 5902 5899 5897 5895 5894 5893 5890 5888 5886 5884 5881 5879
5907 5907 5908 5908 5909 5910 5911 5912 5913 5914 5915 5916 5917 5917 5917 5917 5916 5916 5914 5913 5911 5910 5908 5907 5906 5904 5903 5902 5902 5900 5899 5897 5895 5892 5891 5888 5886 5884 5882 5879 5878 5877 5876
5902 5904 5905 5905 5906 5906 5907 5908 5909 5910 5911 5912 5913 5914 5913 5912 5912 5911 5909 5908 5906 5904 5903 5902 5901 5899 5898 5896 5895 5894 5893 5891 5889 5887 5885 5884 5883 5881 5877 5874 5872 5869 5870
5897 5899 5901 5902 5902 5902 5903 5904 5904 5906 5908 5909 5909 5910 5909 5909 5907 5905 5904 5902 5901 5899 5897 5896 5894 5893 5890 5888 5887 5886 5886 5884 5882 5881 5879 5879 5877 5875 5874 5871 5868 5865 5862
5896 5897 5896 5897 5898 5898 5898 5898 5900 5902 5903 5904 5905 5905 5905 5904 5902 5900 5898 5897 5895 5894 5892 5889 5887 5885 5884 5883 5883 5882 5880 5878 5875 5874 5873 5871 5871 5869 5867 5864 5863 5861 5858
5892 5893 5892 5894 5893 5892 5893 5894 5894 5896 5898 5898 5900 5901 5900 5898 5896 5894 5893 5892 5891 5888 5886 5884 5880 5878 5877 5878 5876 5875 5874 5873 5870 5869 5868 5865 5863 5862 5860 5857 5857 5855 5853
5888 5888 5889 5889 5889 5889 5889 5889 5889 5890 5892 5894 5895 5896 5895 5892 5890 5890 5889 5888 5886 5884 5882 5878 5876 5875 5870 5869 5868 5868 5867 5866 5864 5862 5860 5858 5854 5852 5852 5850 5847 5845 5843
5884 5884 5884 5885 5886 5886 5886 5885 5884 5885 5887 5890 5891 5891 5889 5887 5886 5884 5881 5879 5881 5880 5875 5872 5868 5865 5865 5863 5860 5859 5858 5856 5854 5853 5852 5851 5848 5845 5842 5840 5837 5835 5833
5879 5880 5880 5880 5881 5882 5883 5881 5880 5881 5884 5885 5886 5886 5884 5882 5881 5879 5877 5877 5875 5871 5869 5864 5862 5859 5855 5853 5852 5849 5849 5848 5847 5846 5844 5843 5840 5839 5835 5832 5829 5824 5821
5873 5875 5875 5877 5877 5878 5879 5878 5878 5878 5879 5880 5881 5880 5879 5878 5876 5873 5874 5874 5871 5867 5863 5858 5848 5846 5849 5847 5842 5839 5839 5838 5836 5834 5834 5832 5830 5828 5826 5822 5819 5817 5813
5866 5868 5869 5872 5872 5873 5875 5874 5874 5874 5875 5876 5874 5873 5873 5872 5870 5868 5865 5864 5863 5860 5857 5853 5846 5843 5843 5838 5831 5829 5828 5827 5825 5824 5822 5821 5820 5818 5817 5813 5810 5807 5804
5859 5862 5864 5866 5866 5867 5868 5868 5869 5870 5870 5869 5868 5868 5868 5866 5866 5863 5862 5858 5854 5853 5850 5847 5843 5838 5833 5827 5821 5819 5818 5817 5816 5815 5813 5812 5809 5808 5806 5804 5801 5797 5794
5852 5855 5858 5859 5860 5861 5862 5863 5864 5864 5863 5863 5863 5862 5862 5860 5861 5858 5854 5852 5849 5846 5844 5840 5837 5830 5826 5820 5816 5811 5809 5806 5805 5803 5801 5799 5799 5798 5795 5794 5791 5788 5784
5845 5848 5851 5852 5854 5855 5855 5856 5857 5858 5859 5859 5859 5858 5858 5856 5854 5852 5847 5843 5840 5837 5836 5832 5827 5822 5818 5811 5807 5804 5799 5799 5797 5794 5791 5789 5787 5785 5784 5781 5778 5775 5769
5837 5840 5843 5845 5847 5847 5846 5849 5852 5852 5854 5854 5853 5852 5850 5848 5846 5843 5840 5836 5832 5829 5825 5821 5816 5812 5807 5803 5799 5796 5791 5788 5786 5783 5780 5781 5777 5777 5774 5770 5766 5763 5757
5829 5833 5836 5838 5839 5839 5841 5844 5845 5847 5847 5846 5845 5844 5842 5840 5836 5834 5831 5826 5819 5817 5815 5812 5808 5804 5799 5795 5792 5787 5784 5781 5776 5773 5772 5772 5769 5766 5760 5757 5754 5750 5744
5820 5824 5828 5831 5832 5833 5835 5837 5839 5840 5838 5838 5837 5835 5832 5829 5827 5822 5818 5814 5811 5808 5806 5802 5797 5794 5788 5786 5782 5778 5774 5773 5769 5768 5764 5760 5757 5754 5750 5746 5742 5738 5731
5812 5816 5820 5823 5825 5826 5827 5828 5831 5830 5829 5828 5827 5825 5821 5817 5814 5811 5805 5804 5800 5797 5794 5790 5785 5783 5780 5776 5772 5769 5768 5765 5761 5757 5753 5751 5747 5743 5739 5734 5730 5725 5718
5804 5807 5811 5815 5817 5817 5818 5820 5820 5819 5818 5816 5814 5812 5809 5806 5803 5799 5796 5793 5788 5784 5781 5779 5774 5772 5770 5767 5764 5760 5757 5754 5749 5746 5742 5740 5735 5731 5726 5722 5717 5712 5707
5795 5799 5803 5805 5807 5809 5810 5812 5810 5809 5808 5806 5803 5800 5798 5794 5790 5786 5783 5780 5774 5771 5769 5766 5763 5762 5759 5756 5752 5749 5745 5742 5738 5734 5730 5726 5722 5717 5713 5709 5705 5700 5695
5786 5789 5792 5794 5796 5798 5799 5800 5800 5799 5796 5794 5791 5787 5784 5781 5777 5773 5771 5768 5764 5760 5758 5755 5753 5750 5747 5742 5739 5735 5732 5728 5724 5720 5717 5713 5708 5706 5701 5698 5693 5688 5684
5774 5777 5781 5784 5786 5788 5790 5790 5789 5787 5784 5781 5778 5775 5772 5768 5764 5761 5759 5756 5753 5751 5747 5744 5742 5740 5736 5732 5728 5723 5720 5715 5711 5709 5705 5701 5697 5693 5690 5686 5682 5678 5675
5760 5763 5766 5771 5774 5776 5776 5777 5775 5773 5772 5768 5764 5762 5759 5755 5752 5750 5747 5744 5741 5738 5735 5733 5730 5727 5724 5720 5715 5711 5708 5704 5701 5697 5693 5690 5686 5682 5679 5676 5671 5669 5666